Location: Sungai Bunut
(2.6333°N, 113.7333°E)
Time: 10:11:28
(UTC+00:00)

Courier 1B - Pass Details

Date: 09 December 2023
Orbit: 962 x 1209 km, 28.3° (Epoch: 03 March)

Event Time Altitude Azimuth Distance (km) Brightness Sun altitude
Exits shadow 21:28:35 11° 267° (W) 2,991 9.5 -12.3°
Maximum altitude 21:35:15 38° 332° (NNW) 1,668 8.4 -10.7°
Drops below altitude 10° 21:41:57 10° 38° (NE) 2,951 10.2 -9.2°
Sets 21:44:52 0° 46° (NE) 3,867 11.0 -8.5°
